WHDW 08-10

operational
NORAD ID: 65173 Int'l Des: 2025-174 Owner: ZXW Country: CN
LEOCIRCULARPOLARONEWEB_TYPE

关于 WHDW 08-10

正在加载描述...

实时位置

正在加载3D地球...

即将过境

高度历史

Altitude vs Time

uPlot chart will show altitude changes over time

两行轨道根数

1 65173U 25174K 26061.13155530 .00000074 00000-0 13779-3 0 9990
2 65173 86.4897 288.1721 0001233 85.5683 274.5592 13.24421253 26581
Epoch: Mar 2, 2026 • Age: 27 hours

当前状态

高度 1176.4 km
速度 7.26 km/s
星下点 -22.15°S, 86.27°E
发射日期 Aug 13, 2025
运行时间 0.5 years
类型 other

技术详情

分类 Payload
质量 800.00 kg
干质量 800.00 kg
总质量 800.00 kg
长度 3.00 m
直径 1.00 m
跨度 10.00 m
形状 Box + 2 Pan
制造商 CAST
平台类型 Xingwang CL
阶段状态 In Orbit
所有者/国家 ZXW/CN

大型星座

Loading constellations...